Kingman, AZ

7:23 AM MST on October 22, 2017 (GMT -0700)
Kingman

Weather History for KIGM - October, 2010

Change the Weather History Date:

Monday, October 4, 2010

  Actual Average Record
Temperature  
Mean Temperature 72 °F 68 °F  
Max Temperature 84 °F 82 °F 98 °F (1947)
Min Temperature 60 °F 54 °F 30 °F (1908)
Degree Days  
Heating Degree Days 0 1  
Month to date heating degree days 0 4  
Since 1 July heating degree days 0 10  
Cooling Degree Days 7 5  
Month to date cooling degree days 40 20  
Year to date cooling degree days 2105 2046  
Growing Degree Days 22 (Base 50)    
Moisture  
Dew Point 52 °F    
Average Humidity 53    
Maximum Humidity 78    
Minimum Humidity 28    
Precipitation  
Precipitation 0.59 in 0.02 in 0.73 in (1976)
Month to date precipitation 0.77 0.04  
Year to date precipitation 4.72 6.33  
Sea Level Pressure  
Sea Level Pressure 29.81 in    
Wind  
Wind Speed 18 mph (SSE)    
Max Wind Speed 43 mph    
Max Gust Speed 55 mph    
Visibility 7 miles    
Events Rain    
T = Trace of Precipitation, MM = Missing Value Source: NWS Daily Summary

Daily Weather History Graph

Daily Weather History Graph

Search for Another Location

Airport or City:

Trip Planner

Search our weather history database for the weather conditions in past years. The results will help you decide how hot, cold, wet, or windy it might be!

Date:

Astronomy

Oct. 04, 2010 Rise Set
Actual Time 6:32 AM MST 6:15 PM MST
Civil Twilight 6:07 AM MST 6:40 PM MST
Nautical Twilight 5:38 AM MST 7:10 PM MST
Astronomical Twilight 5:08 AM MST 7:39 PM MST
Moon 2:54 AM MST (10/4) 4:10 PM MST (10/4)
Length of Visible Light 12h 33m
Length of Day
11h 42m
Waning Crescent, 13% of the Moon is Illuminated
Oct 4
Waning Crescent
Oct 7
New
Oct 14
First Quarter
Oct 22
Full
Oct 30
Last Quarter

Hourly Weather History & Observations

Time (MST) Temp. Heat Index Dew Point Humidity Pressure Visibility Wind Dir Wind Speed Gust Speed Precip Events Conditions
12:48 AM 68.0 °F - 50.0 °F 52% 29.86 in 10.0 mi Calm Calm - N/A   Partly Cloudy
1:48 AM 64.0 °F - 50.0 °F 60% 29.85 in 10.0 mi SE 9.2 mph - N/A   Clear
2:48 AM 66.0 °F - 48.0 °F 52% 29.83 in 10.0 mi ESE 12.7 mph - N/A   Clear
3:48 AM 61.0 °F - 48.9 °F 64% 29.82 in 10.0 mi SE 3.5 mph - N/A   Clear
4:48 AM 63.0 °F - 51.1 °F 65% 29.82 in 10.0 mi Calm Calm - N/A   Clear
5:48 AM 63.0 °F - 48.9 °F 60% 29.82 in 10.0 mi SE 3.5 mph - N/A   Clear
6:36 AM 64.4 °F - 51.8 °F 64% 30.02 in 4.0 mi South 18.4 mph 40.3 mph 0.02 in Rain Heavy Rain
6:40 AM 66.2 °F - 48.2 °F 52% 30.01 in 2.0 mi South 19.6 mph 40.3 mph 0.05 in Rain Light Rain
6:46 AM 69.8 °F - 44.6 °F 40% 30.00 in 3.0 mi SSW 17.3 mph 46.0 mph 0.05 in Rain Light Rain
6:48 AM 68.0 °F - 46.0 °F 45% 29.83 in 10.0 mi South 18.4 mph 46.0 mph 0.05 in Rain Light Rain
7:48 AM 71.1 °F - 57.9 °F 63% 29.83 in 10.0 mi SSE 5.8 mph - 0.00 in   Clear
8:48 AM 73.9 °F - 55.0 °F 52% 29.83 in 10.0 mi South 9.2 mph - N/A   Clear
9:48 AM 78.1 °F - 54.0 °F 43% 29.82 in 10.0 mi SSW 17.3 mph - N/A   Partly Cloudy
10:48 AM 81.0 °F - 51.1 °F 35% 29.81 in 10.0 mi SSW 26.5 mph 32.2 mph N/A   Clear
11:48 AM 80.1 °F - 46.0 °F 30% 29.80 in 9.0 mi South 29.9 mph 43.7 mph N/A   Scattered Clouds
12:48 PM 81.0 °F - 51.1 °F 35% 29.77 in 10.0 mi SSW 24.2 mph 33.4 mph 0.00 in   Partly Cloudy
1:48 PM 80.1 °F 79.9 °F 53.1 °F 39% 29.75 in 10.0 mi SSW 24.2 mph 36.8 mph 0.00 in Rain Light Rain
2:48 PM 82.9 °F - 48.0 °F 29% 29.70 in 10.0 mi SW 27.6 mph 36.8 mph 0.00 in   Partly Cloudy
3:48 PM 81.0 °F - 46.0 °F 29% 29.68 in 10.0 mi SW 21.9 mph 33.4 mph N/A   Partly Cloudy
4:48 PM 81.0 °F - 44.1 °F 27% 29.66 in 10.0 mi WSW 26.5 mph 36.8 mph N/A   Partly Cloudy
5:23 PM 73.4 °F - 53.6 °F 50% 29.88 in 4.0 mi SE 33.4 mph 39.1 mph N/A   Haze
5:28 PM 68.0 °F - 57.2 °F 68% 29.87 in 2.0 mi ESE 36.8 mph 55.2 mph 0.00 in Rain Light Rain
5:32 PM 66.2 °F - 57.2 °F 73% 29.86 in 3.0 mi SE 36.8 mph 55.2 mph 0.00 in Rain Light Rain
5:44 PM 64.4 °F - 55.4 °F 73% 29.88 in 1.5 mi South 28.8 mph 43.7 mph 0.00 in Rain Heavy Rain
5:46 PM 62.6 °F - 55.4 °F 77% 29.89 in 0.8 mi SSE 24.2 mph 39.1 mph 0.10 in Rain Heavy Rain
5:48 PM 62.1 °F - 55.0 °F 78% 29.73 in 0.8 mi SE 24.2 mph 39.1 mph 0.21 in Rain Heavy Rain
5:55 PM 62.6 °F - 57.2 °F 82% 29.89 in 1.5 mi ESE 31.1 mph 36.8 mph 0.13 in Rain Light Rain
5:57 PM 64.4 °F - 57.2 °F 77% 29.90 in 3.0 mi ESE 29.9 mph 36.8 mph 0.13 in Rain Light Rain
6:48 PM 64.0 °F - 54.0 °F 70% 29.70 in 10.0 mi SE 20.7 mph - 0.15 in   Partly Cloudy
7:48 PM 63.0 °F - 55.0 °F 75% 29.71 in 10.0 mi ESE 25.3 mph 32.2 mph N/A   Partly Cloudy
8:48 PM 63.0 °F - 55.0 °F 75% 29.72 in 10.0 mi SE 25.3 mph 44.9 mph 0.01 in Rain Light Rain
9:48 PM 63.0 °F - 55.0 °F 75% 29.71 in 8.0 mi SE 25.3 mph - 0.05 in Rain Light Rain
10:48 PM 62.1 °F - 55.9 °F 80% 29.72 in 10.0 mi SE 19.6 mph 28.8 mph 0.01 in Rain Light Rain
11:48 PM 61.0 °F - 57.0 °F 87% 29.73 in 10.0 mi ESE 19.6 mph 25.3 mph 0.08 in Rain Light Rain